Location: Olivella
(41.3167°N, 1.8167°E)
Time: 00:25:39
(UTC+00:00)

Daily predictions for brighter satellites

Satellite Brightness Start Highest point End
(mag) Time Altitude Azimuth Time Altitude Azimuth Time Altitude Azimuth
CENTAUR R/B 4.0 03:44:24 28° NNE 03:44:24 28° NNE 03:47:40 10° NNE
NOSS 3-2 (C) 4.5 04:12:49 34° NNE 04:12:49 34° NNE 04:16:31 10° NNE
BREEZE-M DEB (TANK) 3.3 04:21:03 76° ENE 04:21:03 76° ENE 04:32:27 10° ESE
Envisat 4.3 04:21:01 10° NNE 04:25:47 40° E 04:30:32 10° SSE
Cosmos 2263 4.4 04:24:35 44° S 04:26:21 69° ESE 04:32:04 10° NNE
Cosmos 2098 Rocket 3.7 04:32:19 56° ENE 04:32:19 56° ENE 04:37:00 10° NNE
Cosmos 2369 Rocket 2.3 04:34:16 58° N 04:34:16 58° N 04:38:49 10° NNE
Cosmos 2344 4.2 04:34:44 35° NNW 04:34:44 35° NNW 04:41:06 10° NNE
Meteor 1-26 Rocket 4.1 04:38:04 72° WSW 04:38:04 72° WSW 04:43:29 10° S
USA 238 DEB 4.3 04:39:34 37° NNW 04:39:34 37° NNW 04:44:47 10° NNE
USA 238 4.3 04:39:38 37° NNW 04:39:38 37° NNW 04:44:53 10° NNE
Cosmos 1656 Rocket 3.5 04:37:55 60° SSW 04:38:58 87° ESE 04:44:26 10° NNE
COSMO-SKYMED 1 3.7 04:36:28 10° SE 04:40:32 41° ENE 04:42:52 22° NNE
Cosmos 2279 Rocket 4.4 04:37:29 10° N 04:43:38 61° E 04:49:44 10° SSE
USA 215 4.1 04:37:51 10° E 04:43:50 40° NNE 04:46:50 26° NNW
H-2A R/B 3.7 04:42:09 10° NNE 04:46:54 40° SSE 04:49:33 10° S
Meteor 1-31 Rocket 4.1 04:42:42 10° NNE 04:46:25 40° E 04:50:07 10° S
DELTA 2 R/B (1) 3.7 04:46:42 57° SW 04:47:37 68° S 04:53:07 10° E
Cosmos 1943 Rocket 4.0 04:54:23 16° N 04:54:23 16° N 04:55:51 10° N
CZ-2C R/B 3.0 04:46:37 10° SSE 04:52:01 63° ENE 04:57:20 10° N
Cosmos 1354 Rocket 4.2 04:52:13 10° S 04:57:27 72° ESE 05:02:45 10° NNE
Cosmos 1634 Rocket 3.9 04:58:14 19° NNW 05:02:46 60° W 05:08:50 10° S
Landsat 5 4.0 05:03:54 10° SSE 05:08:20 64° ENE 05:12:32 11° N
SJ 16-02 2.7 05:06:32 10° S 05:10:37 40° ESE 05:14:43 10° NNE
Cosmos 1515 Rocket 4.5 05:07:42 10° N 05:11:55 48° ENE 05:16:07 10° SSE
ADEOS 4.2 05:09:43 10° NNE 05:14:53 57° ESE 05:20:00 10° S
BREEZE-M DEB (TANK) 4.1 05:16:52 26° NNW 05:17:34 28° N 05:23:15 10° ENE
CZ-4C R/B 3.1 05:21:23 10° SSE 05:24:28 62° ENE 05:26:27 20° N
Meteor 2-8 Rocket 4.3 05:19:31 10° N 05:25:41 80° W 05:31:46 10° S
Cosmos 921 Rocket 4.4 05:28:49 22° WSW 05:28:49 22° WSW 05:31:16 10° SSW
SKYMED 2 3.6 05:24:16 10° S 05:28:32 57° W 05:31:28 19° NNW
Cosmos 1500 Rocket 4.5 05:24:38 10° S 05:28:57 51° E 05:33:18 10° NNE
MOS 1-B Rocket 4.2 05:22:58 10° S 05:28:59 46° W 05:33:51 13° NNW
SJ-12 4.3 05:28:04 10° N 05:31:56 39° WNW 05:35:47 10° SW
CENTAUR R/B 3.9 05:31:36 19° NW 05:32:57 20° NNW 05:38:06 10° NNE
CZ-2C R/B 3.6 05:29:08 10° NNE 05:34:00 59° E 05:39:06 10° S
Cosmos 2180 Rocket 4.4 05:29:41 10° NNW 05:35:49 69° W 05:41:52 10° S
Cosmos 783 Rocket 4.4 05:31:02 11° NNW 05:36:00 85° WSW 05:41:13 10° SSE
Cosmos 1503 Rocket 4.3 05:32:39 10° SW 05:37:38 42° WNW 05:42:43 10° N
ATLAS 5 CENTAUR R/B 1.1 05:34:47 10° SW 05:38:32 87° WNW 05:42:44 10° NE
CZ-4B R/B 3.2 05:38:17 10° NNE 05:41:50 57° ESE 05:45:23 10° S
H-2A R/B 3.3 05:38:24 10° SE 05:42:26 42° ENE 05:46:35 10° N
Meteor 1-27 Rocket 3.8 05:37:20 10° N 05:43:01 82° E 05:48:49 10° S
Cosmos 1151 Rocket 4.0 05:42:25 25° WNW 05:43:16 27° W 05:46:56 10° SSW
Cosmos 1777 Rocket 3.9 05:39:45 10° SSW 05:44:57 80° WNW 05:50:13 10° NNE
Meteor PRIRODA 3.7 05:43:03 10° NNE 05:46:41 79° ESE 05:50:18 10° S
SL-8 R/B 3.7 05:45:02 23° WNW 05:48:00 72° SSW 05:52:45 10° SE
FAST Rocket 4.4 05:45:29 10° S 05:48:04 65° E 05:51:03 10° NNE
Cosmos 773 Rocket 3.9 05:45:20 10° NNW 05:50:32 71° WSW 05:55:40 10° S
Cosmos 1340 Rocket 2.7 05:49:28 10° S 05:53:24 84° W 05:57:24 10° N
Cosmos 1515 4.4 05:51:28 10° N 05:55:13 55° E 05:58:57 10° SSE
SL-27 R/B 2.6 05:54:53 14° NNW 05:57:51 54° WSW 06:01:17 10° S
DMSP B5D2-2 4.0 05:56:32 10° S 06:01:44 76° WSW 06:06:58 10° NNW
ATLAS 3B R/B 2.6 05:55:18 10° SW 06:01:48 82° NW 06:08:40 10° NNE
Envisat 3.9 06:00:30 10° NNW 06:04:34 25° WNW 06:08:39 10° WSW
Meteor 1-25 Rocket 4.3 06:02:40 10° S 06:08:17 82° E 06:13:52 10° NNE
Cosmos 158 Rocket 4.1 06:06:42 10° NNW 06:11:52 79° ENE 06:17:09 10° SSE
Cosmos 1174 4.0 06:13:00 10° WSW 06:15:37 28° NW 06:18:21 10° N
Cosmos 1939 Rocket 2.7 06:11:45 10° N 06:15:40 75° WNW 06:19:30 10° SSW
Cosmos 2297 Rocket 3.6 06:10:40 10° N 06:15:52 36° ENE 06:21:02 10° SE
COSMO-SKYMED 1 4.1 06:13:59 10° SW 06:16:51 17° W 06:19:45 10° NW
Cosmos 2369 Rocket 3.8 06:16:08 11° WNW 06:18:13 13° NW 06:20:46 10° NNW
EO 1 Delta rocket 4.5 06:13:39 10° N 06:19:52 79° E 06:24:51 10° S
Meteor 1-31 Rocket 4.4 06:18:09 10° NNW 06:20:26 15° WNW 06:22:44 10° WSW
CZ-4B R/B 1.9 06:20:19 10° SSE 06:23:35 59° ENE 06:26:49 10° N
Cosmos 1607 4.3 06:18:46 10° NNW 06:24:59 66° NE 06:31:04 10° SE
SL-4 R/B 2.3 06:21:37 10° SW 06:25:04 60° SE 06:28:46 10° ENE
USA 215 3.4 06:20:02 10° SE 06:26:33 73° SW 06:33:06 10° NW
Okean 1 3.4 06:26:59 10° N 06:30:57 83° E 06:34:53 10° S
CZ-2C R/B 4.1 06:29:15 10° SW 06:32:41 17° W 06:36:06 10° NW
FALCON 9 R/B 4.3 06:15:31 10° W 06:33:52 41° SW 06:39:36 10° SSE
DELTA 2 R/B (1) 3.8 06:28:25 10° W 06:33:56 71° S 06:39:28 10° ESE
CZ-2D R/B 3.3 06:31:17 10° NNE 06:35:06 82° ESE 06:38:53 10° S
